Погода в Маниковцах

Украина / Хмельницкая область     49°13′37″N   27°12′28″E
темп.,
°C
ветер,
м/с
пор.,
м/с
влажн.,
%
обл.,
%
осадки,
мм/ч
давл.,
гПа
погр.,
м
26 июля, пн
пн2600:00+18юв46686 0.0 101994
03:00+16юв376948 0.0 101996
06:00+16юв48685 0.0 1019122
09:00+22юв5961100 0.0 1018355
12:00+26ююв68476 0.0 10181283
15:00+27ю674118 0.0 10181954
18:00+27ю575097 0.0 10171530
21:00+21юв476659 0.0 1017115
27 июля, вт
вт2700:00+19юв48675 0.0 1018129
03:00+18ююв496999 0.0 1018161
06:00+17ююв4116824 0.0 1017183
09:00+23ююв61057100 0.1 1017397
12:00+25ююв685962 2.0 1017524
15:00+29ю664763 2.0 10161033
18:00+28ююз61055100 0.0 1015641
21:00+23ю466721 0.2 101599
28 июля, ср
ср2800:00+19ю49874 0.8 1016152
03:00+19ююз35862 0.8 101574
06:00+19зсз36914 0.1 1015108
09:00+23ссз45806 0.3 1015404
12:00+27зсз345710 0.0 10151171
15:00+29зсз35445 0.0 10151637
18:00+29зсз34445 0.0 10141418
21:00+23зсз22630 0.0 101416
29 июля, чт
чт2900:00+21ююв11719 0.5 101411
03:00+20ююв227950 0.7 101320
06:00+19ю348888 0.8 101355
09:00+24ю35755 1.0 1012300
12:00+29з345139 0.0 10121085
15:00+30зсз55445 0.0 10121792
18:00+28зсз56540 0.0 10111337
21:00+23зсз59763 0.0 1013313
30 июля, пт
пт3000:00+19сз379499 0.0 1013137
03:00+18сз35956 0.0 101394
06:00+17сз34950 0.0 101372
09:00+22сз23730 0.0 1013415
12:00+26з23490 0.0 10121184
15:00+29зюз23400 0.0 10111437
18:00+29ююз22410 0.0 10101235
21:00+23ююв45625 0.0 100955